This is the latest recevied weather packets stored in our database for station/object N4QD-13. If no packets are shown the sender has not sent any weather packets the latest 10 day(s).
| Time | Temp. | Humidity | Pressure | Rain* | Wind** | Luminosity | Snow |
|---|---|---|---|---|---|---|---|
| 1777421147 | 14.44° C | 94% | 1016.7 hPa | 0 mm | - | 1 W/m² | - |
| 1777420843 | 14.44° C | 94% | 1016.5 hPa | 0 mm | - | 2 W/m² | - |
| 1777420539 | 14.44° C | 93% | 1016.5 hPa | 0 mm | - | 5 W/m² | - |
| 1777420235 | 14.44° C | 93% | 1016.8 hPa | 0 mm | - | 9 W/m² | - |
| 1777419931 | 14.44° C | 93% | 1016.6 hPa | 0 mm | - | 12 W/m² | - |
| 1777419629 | 15° C | 92% | 1016.7 hPa | 0 mm | - | 17 W/m² | - |
| 1777419327 | 15° C | 91% | 1016.5 hPa | 0 mm | - | 22 W/m² | - |
| 1777419026 | 15° C | 91% | 1016.7 hPa | 0 mm | - | 26 W/m² | - |
| 1777418725 | 15° C | 90% | 1016.6 hPa | 0 mm | - | 29 W/m² | - |
| 1777418422 | 15.56° C | 89% | 1016.8 hPa | 0 mm | - | 34 W/m² | - |
| 1777418118 | 15.56° C | 89% | 1016.9 hPa | 0 mm | - | 39 W/m² | - |
| 1777417815 | 15.56° C | 88% | 1017 hPa | 0 mm | - | 44 W/m² | - |
| 1777417510 | 15.56° C | 88% | 1017 hPa | 0 mm | - | 48 W/m² | - |
| 1777417207 | 15.56° C | 89% | 1017.3 hPa | 0 mm | - | 56 W/m² | - |
| 1777416903 | 15.56° C | 89% | 1017.5 hPa | 0 mm | - | 66 W/m² | - |
| 1777416597 | 15.56° C | 89% | 1017.5 hPa | 0 mm | - | 65 W/m² | - |
| 1777416294 | 15.56° C | 88% | 1017.8 hPa | 0 mm | - | 53 W/m² | - |
| 1777415993 | 16.11° C | 87% | 1017.7 hPa | 0 mm | - | 72 W/m² | - |
| 1777415689 | 16.11° C | 87% | 1017.6 hPa | 0 mm | - | 157 W/m² | - |
| 1777415385 | 15.56° C | 87% | 1017.6 hPa | 0 mm | - | 79 W/m² | - |
| 1777415085 | 16.11° C | 87% | 1017.7 hPa | 0 mm | - | 72 W/m² | - |
| 1777414784 | 16.11° C | 86% | 1017.5 hPa | 0 mm | - | 101 W/m² | - |
| 1777414481 | 16.67° C | 84% | 1017.5 hPa | 0 mm | - | 78 W/m² | - |
| 1777414180 | 16.67° C | 84% | 1017.3 hPa | 0 mm | - | 185 W/m² | - |
| 1777413876 | 17.22° C | 83% | 1017.2 hPa | 0 mm | - | 199 W/m² | - |
* Rain latest hour (hover to see other rain measurements)
** Current wind speed in m/s (hover to see current wind gust speed)